Location: Alpha Ridge Park
(39.3209°N, 76.9128°W)
Time: 16:44:19
(UTC-04:00)

Transit 2A - Pass Details

Date: 25 May 2019
Orbit: 593 x 966 km, 66.7° (Epoch: 18 June)

Event Time Altitude Azimuth Distance (km) Brightness Sun altitude
Rises 06:59:20 0° 180° (S) 3,502 9.2 12.1°
Reaches altitude 10° 07:01:59 10° 172° (S) 2,608 8.7 12.6°
Maximum altitude 07:07:28 35° 109° (ESE) 1,488 8.5 13.6°
Drops below altitude 10° 07:13:10 10° 46° (NE) 2,709 10.1 14.7°
Sets 07:15:57 0° 38° (NE) 3,656 10.4 15.2°
